TimeEDT,TemperatureF,Dew PointF,Humidity,Sea Level PressureIn,VisibilityMPH,Wind Direction,Wind SpeedMPH,Gust SpeedMPH,PrecipitationIn,Events,Conditions,WindDirDegrees,DateUTC
12:15 AM,69.8,64.4,83,30.10,10.0,North,9.2,-,0.00,,Overcast,360,2013-10-14 04:15:00
12:35 AM,69.8,64.4,83,30.10,10.0,North,9.2,-,0.00,,Overcast,360,2013-10-14 04:35:00
12:55 AM,69.8,64.4,83,30.10,10.0,North,11.5,-,0.00,,Overcast,360,2013-10-14 04:55:00
1:15 AM,69.8,64.4,83,30.09,10.0,North,12.7,-,0.00,,Overcast,360,2013-10-14 05:15:00
1:35 AM,69.8,64.4,83,30.09,10.0,North,11.5,17.3,0.00,,Overcast,360,2013-10-14 05:35:00
1:55 AM,69.8,64.4,83,30.09,10.0,North,11.5,18.4,0.00,,Overcast,10,2013-10-14 05:55:00
2:15 AM,69.8,64.4,83,30.08,10.0,North,10.4,16.1,0.00,,Overcast,10,2013-10-14 06:15:00
2:35 AM,69.8,64.4,83,30.08,10.0,North,11.5,18.4,0.00,,Overcast,360,2013-10-14 06:35:00
2:55 AM,69.8,64.4,83,30.07,10.0,North,8.1,16.1,0.00,,Overcast,360,2013-10-14 06:55:00
3:15 AM,69.8,64.4,83,30.07,10.0,North,11.5,-,0.00,,Overcast,10,2013-10-14 07:15:00
3:35 AM,69.8,64.4,83,30.07,10.0,North,11.5,18.4,0.00,,Overcast,10,2013-10-14 07:35:00
3:55 AM,69.8,64.4,83,30.07,10.0,North,9.2,17.3,0.00,,Overcast,10,2013-10-14 07:55:00
4:15 AM,69.8,64.4,83,30.07,10.0,North,10.4,-,0.00,,Overcast,10,2013-10-14 08:15:00
4:35 AM,69.8,64.4,83,30.08,10.0,North,10.4,-,0.00,,Overcast,360,2013-10-14 08:35:00
4:55 AM,69.8,64.4,83,30.08,10.0,NNE,10.4,-,0.00,,Overcast,20,2013-10-14 08:55:00
5:15 AM,69.8,64.4,83,30.08,10.0,North,8.1,-,0.00,,Overcast,10,2013-10-14 09:15:00
5:35 AM,69.8,64.4,83,30.08,10.0,NNE,12.7,-,0.00,,Overcast,20,2013-10-14 09:35:00
5:55 AM,69.8,64.4,83,30.08,9.0,NNE,10.4,-,0.00,,Overcast,20,2013-10-14 09:55:00
6:15 AM,69.8,64.4,83,30.09,10.0,North,10.4,-,0.00,,Overcast,360,2013-10-14 10:15:00
6:35 AM,69.8,64.4,83,30.09,10.0,North,11.5,16.1,0.00,,Overcast,360,2013-10-14 10:35:00
6:55 AM,69.8,64.4,83,30.09,10.0,North,10.4,-,0.00,,Overcast,10,2013-10-14 10:55:00
7:15 AM,69.8,64.4,83,30.10,10.0,North,10.4,-,0.00,,Overcast,360,2013-10-14 11:15:00
7:35 AM,69.8,64.4,83,30.10,10.0,North,10.4,-,0.00,,Overcast,350,2013-10-14 11:35:00
7:55 AM,69.8,64.4,83,30.10,10.0,North,10.4,-,0.00,,Overcast,360,2013-10-14 11:55:00
8:15 AM,69.8,64.4,83,30.11,10.0,North,9.2,-,0.00,,Overcast,10,2013-10-14 12:15:00
8:35 AM,69.8,64.4,83,30.11,9.0,North,10.4,-,0.00,,Overcast,360,2013-10-14 12:35:00
8:55 AM,69.8,64.4,83,30.12,7.0,North,10.4,-,0.00,,Overcast,360,2013-10-14 12:55:00
9:15 AM,69.8,64.4,83,30.12,10.0,North,9.2,-,0.00,,Overcast,360,2013-10-14 13:15:00
9:35 AM,69.8,64.4,83,30.11,10.0,North,11.5,17.3,0.00,,Overcast,360,2013-10-14 13:35:00
9:55 AM,69.8,64.4,83,30.11,10.0,North,11.5,17.3,0.00,,Overcast,350,2013-10-14 13:55:00
10:15 AM,71.6,64.4,78,30.12,10.0,North,10.4,16.1,0.00,,Overcast,350,2013-10-14 14:15:00
10:35 AM,71.6,64.4,78,30.12,10.0,North,10.4,16.1,0.00,,Overcast,360,2013-10-14 14:35:00
10:55 AM,71.6,64.4,78,30.12,10.0,NNE,10.4,-,0.00,,Overcast,20,2013-10-14 14:55:00
11:15 AM,71.6,64.4,78,30.11,8.0,North,12.7,-,0.00,,Overcast,10,2013-10-14 15:15:00
11:35 AM,73.4,66.2,78,30.10,10.0,North,11.5,-,0.00,,Overcast,10,2013-10-14 15:35:00
11:55 AM,71.6,64.4,78,30.10,9.0,North,10.4,18.4,0.00,,Overcast,10,2013-10-14 15:55:00
12:15 PM,73.4,66.2,78,30.09,10.0,North,13.8,18.4,0.00,,Overcast,360,2013-10-14 16:15:00
12:35 PM,73.4,64.4,73,30.09,10.0,NNE,13.8,20.7,0.00,,Overcast,30,2013-10-14 16:35:00
12:55 PM,73.4,64.4,73,30.09,10.0,NNE,11.5,17.3,0.00,,Overcast,30,2013-10-14 16:55:00
1:15 PM,71.6,64.4,78,30.08,9.0,NNE,12.7,-,0.00,,Overcast,20,2013-10-14 17:15:00
1:35 PM,73.4,66.2,78,30.07,10.0,North,13.8,-,0.00,,Overcast,10,2013-10-14 17:35:00
1:55 PM,73.4,64.4,73,30.06,10.0,North,11.5,18.4,0.00,,Overcast,10,2013-10-14 17:55:00
2:15 PM,75.2,66.2,73,30.06,10.0,North,10.4,-,0.00,,Mostly Cloudy,10,2013-10-14 18:15:00
2:35 PM,73.4,64.4,73,30.06,10.0,NNE,11.5,-,0.00,,Overcast,20,2013-10-14 18:35:00
2:55 PM,75.2,66.2,73,30.06,10.0,NNE,6.9,-,0.00,,Overcast,30,2013-10-14 18:55:00
3:15 PM,75.2,66.2,73,30.06,10.0,NNE,8.1,-,0.00,,Overcast,30,2013-10-14 19:15:00
3:35 PM,75.2,66.2,73,30.06,10.0,North,5.8,-,0.00,,Overcast,10,2013-10-14 19:35:00
3:55 PM,77.0,66.2,69,30.05,10.0,NNE,8.1,-,0.00,,Mostly Cloudy,20,2013-10-14 19:55:00
4:15 PM,77.0,66.2,69,30.05,10.0,NNE,9.2,-,0.00,,Mostly Cloudy,20,2013-10-14 20:15:00
4:35 PM,75.2,66.2,73,30.05,10.0,North,9.2,-,0.00,,Overcast,10,2013-10-14 20:35:00
4:55 PM,77.0,66.2,69,30.05,10.0,North,8.1,16.1,0.00,,Mostly Cloudy,360,2013-10-14 20:55:00
5:15 PM,75.2,66.2,73,30.05,10.0,NNE,9.2,-,0.00,,Overcast,20,2013-10-14 21:15:00
5:35 PM,75.2,66.2,73,30.05,10.0,NNE,8.1,-,0.00,,Overcast,20,2013-10-14 21:35:00
5:55 PM,73.4,64.4,73,30.06,10.0,North,9.2,-,0.00,,Overcast,10,2013-10-14 21:55:00
6:15 PM,73.4,64.4,73,30.06,10.0,North,11.5,-,0.00,,Overcast,10,2013-10-14 22:15:00
6:35 PM,73.4,64.4,73,30.06,10.0,North,10.4,-,0.00,,Mostly Cloudy,10,2013-10-14 22:35:00
6:55 PM,73.4,64.4,73,30.07,10.0,North,11.5,-,0.00,,Mostly Cloudy,10,2013-10-14 22:55:00
7:15 PM,73.4,64.4,73,30.07,10.0,North,11.5,-,0.00,,Overcast,10,2013-10-14 23:15:00
7:35 PM,73.4,64.4,73,30.07,10.0,NNE,13.8,-,0.00,,Overcast,20,2013-10-14 23:35:00
7:55 PM,71.6,64.4,78,30.08,10.0,NNE,10.4,18.4,0.00,,Mostly Cloudy,20,2013-10-14 23:55:00
8:15 PM,71.6,64.4,78,30.08,10.0,NNE,13.8,20.7,0.00,,Mostly Cloudy,20,2013-10-15 00:15:00
8:35 PM,71.6,64.4,78,30.09,10.0,NNE,11.5,-,0.00,,Mostly Cloudy,20,2013-10-15 00:35:00
8:55 PM,69.8,64.4,83,30.09,10.0,North,11.5,17.3,0.00,,Overcast,10,2013-10-15 00:55:00
9:15 PM,69.8,64.4,83,30.09,10.0,NNE,10.4,18.4,0.00,,Mostly Cloudy,20,2013-10-15 01:15:00
9:35 PM,69.8,64.4,83,30.10,10.0,North,11.5,-,0.00,,Overcast,10,2013-10-15 01:35:00
9:55 PM,69.8,64.4,83,30.10,10.0,NNE,12.7,-,0.00,,Mostly Cloudy,20,2013-10-15 01:55:00
10:15 PM,69.8,64.4,83,30.11,10.0,North,11.5,-,0.00,,Scattered Clouds,10,2013-10-15 02:15:00
10:35 PM,69.8,64.4,83,30.11,10.0,NNE,11.5,17.3,0.00,,Scattered Clouds,20,2013-10-15 02:35:00
10:55 PM,68.0,64.4,88,30.11,10.0,NNE,12.7,-,0.00,,Mostly Cloudy,20,2013-10-15 02:55:00
11:15 PM,68.0,64.4,88,30.12,10.0,North,10.4,-,0.00,,Mostly Cloudy,10,2013-10-15 03:15:00
11:35 PM,68.0,64.4,88,30.11,10.0,NNE,10.4,-,0.00,,Mostly Cloudy,20,2013-10-15 03:35:00
11:55 PM,66.2,62.6,88,30.11,10.0,North,11.5,-,0.00,,Partly Cloudy,10,2013-10-15 03:55:00